When you browse on this site, cookies collect data to enhance your experience and personalize the content and advertising you see.
Visit our Privacy Policy to learn more. By continuing to use the site, you agree to this use of cookies and data.
  • In Hungary
  • List of Countries
  • For 7 days
  • Water Temperature
  • Satellite Maps
  • Weather Map
  • News
  • Weather Widgets
  • user-avatar
    Login

    Hourly Weather Linz

    Today, 10 December, Monday

    Time Temperature Precipitation Wind Pressure Humidity
    00:00 +5°C° 0.4 mm 5 mps 727 mmHg 87%
    01:00 +3°C° 0.4 mm 5 mps 728 mmHg 86%
    02:00 +3°C° 0.5 mm 5 mps 728 mmHg 85%
    03:00 +3°C° 0.5 mm 6 mps 729 mmHg 84%
    04:00 +3°C° 0.5 mm 6 mps 729 mmHg 83%
    05:00 +3°C° 0.1 mm 6 mps 730 mmHg 83%
    06:00 +2°C° 0.1 mm 6 mps 730 mmHg 83%
    07:00 +2°C° 0.1 mm 6 mps 730 mmHg 83%
    08:00 +2°C° 0.1 mm 6 mps 731 mmHg 81%
    09:00 +2°C° 0.1 mm 6 mps 731 mmHg 78%
    10:00 +2°C° 0.1 mm 6 mps 732 mmHg 76%
    11:00 +2°C° 0.1 mm 6 mps 732 mmHg 75%
    12:00 +2°C° 0.1 mm 6 mps 732 mmHg 73%
    13:00 +2°C° 0.1 mm 6 mps 732 mmHg 71%
    14:00 +2°C° 0.3 mm 6 mps 732 mmHg 73%
    15:00 +2°C° 0.3 mm 5 mps 733 mmHg 75%
    16:00 +1°C° 0.3 mm 5 mps 733 mmHg 77%
    17:00 +1°C° 0.2 mm 5 mps 733 mmHg 79%
    18:00 +1°C° 0.2 mm 5 mps 733 mmHg 81%
    19:00 0°C° 0.2 mm 4 mps 733 mmHg 83%
    20:00 0°C° 0.5 mm 4 mps 733 mmHg 85%
    21:00 0°C° 0.5 mm 4 mps 733 mmHg 86%
    22:00 +1°C° 0.5 mm 3 mps 733 mmHg 88%
    23:00 -1°C° 0.2 mm 4 mps 733 mmHg 87%

    Tomorrow, 11 December, Tuesday

    Time Temperature Precipitation Wind Pressure Humidity
    00:00 -1°C° 0.2 mm 4 mps 733 mmHg 87%
    01:00 -1°C° 0.2 mm 4 mps 733 mmHg 87%
    02:00 -1°C° 0.2 mm 4 mps 733 mmHg 87%
    03:00 -1°C° 0.2 mm 5 mps 733 mmHg 86%
    04:00 -1°C° 0.2 mm 5 mps 733 mmHg 86%
    05:00 -1°C° 0.3 mm 5 mps 733 mmHg 86%
    06:00 -2°C° 0.3 mm 6 mps 733 mmHg 86%
    07:00 -2°C° 0.3 mm 6 mps 733 mmHg 86%
    08:00 -2°C° 0.3 mm 6 mps 733 mmHg 85%
    09:00 -1°C° 0.3 mm 6 mps 733 mmHg 85%
    10:00 -1°C° 0.3 mm 6 mps 733 mmHg 84%
    11:00 -1°C° 0.2 mm 6 mps 733 mmHg 83%
    12:00 -1°C° 0.2 mm 7 mps 733 mmHg 82%
    13:00 -1°C° 0.2 mm 7 mps 733 mmHg 81%
    14:00 -1°C° 0.3 mm 7 mps 733 mmHg 82%
    15:00 -1°C° 0.3 mm 7 mps 733 mmHg 83%
    16:00 -1°C° 0.3 mm 7 mps 733 mmHg 83%
    17:00 -1°C° 0.4 mm 6 mps 733 mmHg 84%
    18:00 -1°C° 0.4 mm 6 mps 734 mmHg 85%
    19:00 -1°C° 0.4 mm 6 mps 734 mmHg 86%
    20:00 -1°C° 0.6 mm 6 mps 734 mmHg 87%
    21:00 -2°C° 0.6 mm 6 mps 734 mmHg 88%
    22:00 -2°C° 0.6 mm 6 mps 734 mmHg 88%
    23:00 -1°C° 0.7 mm 5 mps 734 mmHg 89%

    Day after tomorrow, 12 December, Wednesday

    Time Temperature Precipitation Wind Pressure Humidity
    00:00 -1°C° 0.7 mm 5 mps 735 mmHg 90%
    01:00 -1°C° 0.7 mm 5 mps 735 mmHg 91%
    02:00 -1°C° 0.7 mm 5 mps 735 mmHg 91%
    03:00 -1°C° 0.7 mm 4 mps 735 mmHg 92%
    04:00 -1°C° 0.7 mm 4 mps 735 mmHg 92%
    05:00 -1°C° 0.5 mm 3 mps 736 mmHg 93%
    06:00 -1°C° 0.5 mm 3 mps 736 mmHg 93%
    07:00 -1°C° 0.5 mm 2 mps 736 mmHg 94%
    08:00 -1°C° 0.2 mm 2 mps 736 mmHg 93%
    09:00 -1°C° 0.2 mm 2 mps 736 mmHg 93%
    10:00 +1°C° 0.2 mm 2 mps 736 mmHg 92%
    11:00 +1°C° 0.1 mm 2 mps 736 mmHg 92%
    12:00 +1°C° 0.1 mm 2 mps 736 mmHg 91%
    13:00 +2°C° 0.1 mm 2 mps 735 mmHg 90%
    14:00 +2°C° 0 mm 1 mps 735 mmHg 91%
    15:00 +1°C° 0 mm 1 mps 735 mmHg 93%
    16:00 +1°C° 0 mm 1 mps 735 mmHg 94%
    17:00 0°C° 0 mm 1 mps 735 mmHg 93%
    18:00 -1°C° 0 mm 1 mps 735 mmHg 93%
    19:00 -1°C° 0 mm 1 mps 736 mmHg 93%
    20:00 -2°C° 0 mm 1 mps 736 mmHg 92%
    21:00 -2°C° 0 mm 1 mps 736 mmHg 92%
    22:00 -2°C° 0 mm 1 mps 736 mmHg 92%
    23:00 -3°C° 0 mm 1 mps 736 mmHg 91%

    13 December, Thursday

    Time Temperature Precipitation Wind Pressure Humidity
    00:00 -3°C° 0 mm 1 mps 736 mmHg 91%
    01:00 -4°C° 0 mm 1 mps 735 mmHg 90%
    02:00 -4°C° 0 mm 1 mps 735 mmHg 90%
    03:00 -4°C° 0 mm 1 mps 735 mmHg 89%
    04:00 -4°C° 0 mm 1 mps 735 mmHg 88%
    05:00 -4°C° 0 mm 1 mps 735 mmHg 88%
    06:00 -4°C° 0 mm 1 mps 735 mmHg 87%
    07:00 -4°C° 0 mm 1 mps 735 mmHg 87%
    08:00 -3°C° 0 mm 1 mps 734 mmHg 85%
    09:00 -2°C° 0 mm 1 mps 734 mmHg 84%
    10:00 -1°C° 0 mm 1 mps 734 mmHg 82%
    11:00 0°C° 0 mm 1 mps 734 mmHg 81%
    12:00 +1°C° 0 mm 1 mps 733 mmHg 80%
    13:00 +1°C° 0 mm 2 mps 733 mmHg 79%
    14:00 -1°C° 0 mm 2 mps 732 mmHg 83%
    15:00 -1°C° 0 mm 2 mps 732 mmHg 87%
    16:00 0°C° 0 mm 1 mps 732 mmHg 90%
    17:00 -1°C° 0 mm 1 mps 732 mmHg 91%
    18:00 -1°C° 0 mm 1 mps 732 mmHg 91%
    19:00 -2°C° 0 mm 1 mps 732 mmHg 92%
    20:00 -2°C° 0 mm 1 mps 732 mmHg 91%
    21:00 -2°C° 0 mm 1 mps 732 mmHg 91%
    22:00 -2°C° 0 mm 1 mps 732 mmHg 91%
    23:00 -2°C° 0 mm 1 mps 732 mmHg 91%

    14 December, Friday

    Time Temperature Precipitation Wind Pressure Humidity
    00:00 -2°C° 0 mm 1 mps 732 mmHg 91%
    01:00 -2°C° 0 mm 1 mps 732 mmHg 90%
    02:00 -1°C° 0 mm 1 mps 731 mmHg 90%
    03:00 -1°C° 0 mm 1 mps 731 mmHg 90%
    04:00 -2°C° 0 mm 0 mps 731 mmHg 90%
    05:00 -2°C° 0.1 mm 0 mps 732 mmHg 91%
    06:00 -1°C° 0.1 mm 0 mps 732 mmHg 91%
    07:00 -1°C° 0.1 mm 0 mps 732 mmHg 92%
    08:00 0°C° 0.1 mm 1 mps 733 mmHg 91%
    09:00 +1°C° 0.1 mm 1 mps 733 mmHg 90%
    10:00 +2°C° 0.1 mm 1 mps 733 mmHg 90%
    11:00 +1°C° 0.1 mm 0 mps 733 mmHg 91%
    12:00 +2°C° 0.1 mm 0 mps 732 mmHg 92%
    13:00 +2°C° 0.1 mm 0 mps 732 mmHg 92%
    14:00 +2°C° 0.1 mm 0 mps 732 mmHg 93%
    15:00 +3°C° 0.1 mm 1 mps 732 mmHg 94%
    16:00 +3°C° 0.1 mm 1 mps 732 mmHg 95%
    17:00 +2°C° 0 mm 1 mps 732 mmHg 94%
    18:00 +2°C° 0 mm 1 mps 732 mmHg 94%
    19:00 +2°C° 0 mm 1 mps 732 mmHg 93%
    20:00 +1°C° 0 mm 1 mps 732 mmHg 93%
    21:00 +1°C° 0 mm 1 mps 732 mmHg 92%
    22:00 +1°C° 0 mm 1 mps 732 mmHg 92%
    23:00 +1°C° 0 mm 1 mps 732 mmHg 91%

    15 December, Saturday

    Time Temperature Precipitation Wind Pressure Humidity
    00:00 0°C° 0 mm 1 mps 731 mmHg 91%
    01:00 0°C° 0 mm 1 mps 731 mmHg 90%
    02:00 0°C° 0 mm 1 mps 731 mmHg 90%
    03:00 0°C° 0 mm 1 mps 731 mmHg 90%
    04:00 0°C° 0 mm 1 mps 732 mmHg 89%
    05:00 0°C° 0 mm 1 mps 732 mmHg 89%
    06:00 +1°C° 0 mm 1 mps 733 mmHg 88%
    07:00 +1°C° 0 mm 1 mps 733 mmHg 88%
    08:00 +1°C° 0 mm 0 mps 734 mmHg 88%
    09:00 +1°C° 0 mm 0 mps 734 mmHg 88%
    10:00 +2°C° 0 mm 0 mps 735 mmHg 88%
    11:00 +2°C° 0.2 mm 0 mps 735 mmHg 89%
    12:00 +2°C° 0.2 mm 0 mps 735 mmHg 90%
    13:00 +3°C° 0.2 mm 0 mps 735 mmHg 92%
    14:00 +2°C° 0.4 mm 0 mps 735 mmHg 92%
    15:00 +2°C° 0.4 mm 0 mps 736 mmHg 93%
    16:00 +2°C° 0.4 mm 0 mps 736 mmHg 94%
    17:00 +2°C° 0.4 mm 0 mps 736 mmHg 94%
    18:00 +2°C° 0.4 mm 0 mps 737 mmHg 95%
    19:00 +2°C° 0.4 mm 0 mps 737 mmHg 95%
    20:00 +2°C° 0.3 mm 0 mps 738 mmHg 95%
    21:00 +2°C° 0.3 mm 1 mps 738 mmHg 95%
    22:00 +2°C° 0.3 mm 1 mps 738 mmHg 95%
    23:00 +2°C° 0.1 mm 1 mps 738 mmHg 95%
    Show more